Time,TemperatureF,DewpointF,PressureIn,WindDirection,WindDirectionDegrees,WindSpeedMPH,WindSpeedGustMPH,Humidity,HourlyPrecipIn,Conditions,Clouds,dailyrainin,SoftwareType,DateUTC
2013-05-18 00:03:00,64.0,39.0,-100.00,ENE,66,7.0,19.0,42,0.00,,,-99.99,,2013-05-18 04:03:00,
2013-05-18 00:12:00,64.0,37.0,-100.00,NE,56,7.0,19.0,40,0.00,,,-99.99,,2013-05-18 04:12:00,
2013-05-18 00:23:00,63.0,37.0,-100.00,ENE,57,7.0,19.0,40,0.00,,,-99.99,,2013-05-18 04:23:00,
2013-05-18 00:33:00,63.0,37.0,-100.00,ENE,60,7.0,19.0,40,0.00,,,-99.99,,2013-05-18 04:33:00,
2013-05-18 00:43:00,63.0,37.0,-100.00,NE,56,6.0,19.0,40,0.00,,,-99.99,,2013-05-18 04:43:00,
2013-05-18 00:52:00,63.0,37.0,-100.00,ENE,67,6.0,19.0,40,0.00,,,-99.99,,2013-05-18 04:52:00,
2013-05-18 01:02:00,63.0,37.0,-100.00,East,83,5.0,19.0,41,0.00,,,-99.99,,2013-05-18 05:02:00,
2013-05-18 01:13:00,63.0,37.0,-100.00,NE,56,4.0,19.0,41,0.00,,,-99.99,,2013-05-18 05:13:00,
2013-05-18 01:22:00,63.0,37.0,-100.00,NE,52,5.0,19.0,40,0.00,,,-99.99,,2013-05-18 05:22:00,
2013-05-18 01:32:00,62.0,37.0,-100.00,ENE,64,6.0,19.0,40,0.00,,,-99.99,,2013-05-18 05:32:00,
2013-05-18 01:42:00,62.0,37.0,-100.00,NE,55,6.0,19.0,40,0.00,,,-99.99,,2013-05-18 05:42:00,
2013-05-18 01:52:00,62.0,36.0,-100.00,NE,46,6.0,19.0,38,0.00,,,-99.99,,2013-05-18 05:52:00,
2013-05-18 02:02:00,60.0,34.0,-100.00,ENE,59,7.0,19.0,38,0.00,,,-99.99,,2013-05-18 06:02:00,
2013-05-18 02:11:00,61.0,36.0,-100.00,NNE,19,5.0,19.0,41,0.00,,,-99.99,,2013-05-18 06:11:00,
2013-05-18 02:22:00,60.0,36.0,-100.00,NE,43,4.0,19.0,42,0.00,,,-99.99,,2013-05-18 06:22:00,
2013-05-18 02:32:00,59.0,37.0,-100.00,ENE,59,6.0,19.0,45,0.00,,,-99.99,,2013-05-18 06:32:00,
2013-05-18 02:42:00,59.0,37.0,-100.00,ENE,59,7.0,19.0,47,0.00,,,-99.99,,2013-05-18 06:42:00,
2013-05-18 02:52:00,59.0,37.0,-100.00,NE,55,7.0,19.0,47,0.00,,,-99.99,,2013-05-18 06:52:00,
2013-05-18 03:01:00,58.0,39.0,-100.00,NE,46,6.0,19.0,50,0.00,,,-99.99,,2013-05-18 07:01:00,
2013-05-18 03:12:00,56.0,37.0,-100.00,NE,53,7.0,19.0,51,0.00,,,-99.99,,2013-05-18 07:12:00,
2013-05-18 03:22:00,58.0,41.0,-100.00,NE,55,8.0,19.0,54,0.00,,,-99.99,,2013-05-18 07:22:00,
2013-05-18 03:32:00,59.0,43.0,-100.00,ENE,60,9.0,19.0,56,0.00,,,-99.99,,2013-05-18 07:32:00,
2013-05-18 03:42:00,58.0,43.0,-100.00,NE,56,7.0,19.0,58,0.00,,,-99.99,,2013-05-18 07:42:00,
2013-05-18 03:52:00,57.0,41.0,-100.00,NE,55,6.0,19.0,58,0.00,,,-99.99,,2013-05-18 07:52:00,
2013-05-18 04:01:00,57.0,41.0,-100.00,ENE,57,6.0,19.0,59,0.00,,,-99.99,,2013-05-18 08:01:00,
2013-05-18 04:11:00,56.0,43.0,-100.00,ENE,59,4.0,19.0,62,0.00,,,-99.99,,2013-05-18 08:11:00,
2013-05-18 04:21:00,56.0,43.0,-100.00,NE,56,5.0,19.0,62,0.00,,,-99.99,,2013-05-18 08:21:00,
2013-05-18 04:32:00,56.0,43.0,-100.00,ENE,57,4.0,19.0,63,0.00,,,-99.99,,2013-05-18 08:32:00,
2013-05-18 04:42:00,56.0,45.0,-100.00,ENE,64,2.0,19.0,66,0.00,,,-99.99,,2013-05-18 08:42:00,
2013-05-18 04:52:00,55.0,41.0,-100.00,NE,49,3.0,19.0,64,0.00,,,-99.99,,2013-05-18 08:52:00,
2013-05-18 05:02:00,57.0,45.0,-100.00,ENE,72,2.0,19.0,64,0.00,,,-99.99,,2013-05-18 09:02:00,
2013-05-18 05:12:00,54.0,43.0,-100.00,East,79,1.0,19.0,67,0.00,,,-99.99,,2013-05-18 09:12:00,
2013-05-18 05:22:00,54.0,43.0,-100.00,ENE,62,1.0,19.0,68,0.00,,,-99.99,,2013-05-18 09:22:00,
2013-05-18 05:33:00,55.0,43.0,-100.00,ENE,70,1.0,19.0,68,0.00,,,-99.99,,2013-05-18 09:33:00,
2013-05-18 05:43:00,55.0,43.0,-100.00,East,83,1.0,19.0,68,0.00,,,-99.99,,2013-05-18 09:43:00,
2013-05-18 05:53:00,55.0,45.0,-100.00,ENE,63,2.0,19.0,69,0.00,,,-99.99,,2013-05-18 09:53:00,
2013-05-18 06:03:00,55.0,43.0,-100.00,ENE,70,1.0,19.0,66,0.00,,,-99.99,,2013-05-18 10:03:00,
2013-05-18 06:12:00,55.0,43.0,-100.00,NE,53,1.0,19.0,68,0.00,,,-99.99,,2013-05-18 10:12:00,
2013-05-18 06:23:00,55.0,43.0,-100.00,East,84,1.0,19.0,66,0.00,,,-99.99,,2013-05-18 10:23:00,
2013-05-18 06:33:00,56.0,43.0,-100.00,ENE,76,1.0,19.0,66,0.00,,,-99.99,,2013-05-18 10:33:00,
2013-05-18 06:42:00,55.0,43.0,-100.00,NE,43,1.0,19.0,68,0.00,,,-99.99,,2013-05-18 10:42:00,
2013-05-18 06:52:00,55.0,43.0,-100.00,NNE,22,1.0,19.0,68,0.00,,,-99.99,,2013-05-18 10:52:00,
2013-05-18 07:03:00,55.0,45.0,-100.00,NNE,28,0.0,19.0,69,0.00,,,-99.99,,2013-05-18 11:03:00,
2013-05-18 07:12:00,55.0,45.0,-100.00,North,357,1.0,19.0,68,0.00,,,-99.99,,2013-05-18 11:12:00,
2013-05-18 07:22:00,55.0,45.0,-100.00,North,4,1.0,19.0,71,0.00,,,-99.99,,2013-05-18 11:22:00,
2013-05-18 07:33:00,55.0,45.0,-100.00,North,1,2.0,19.0,71,0.00,,,-99.99,,2013-05-18 11:33:00,
2013-05-18 07:42:00,55.0,45.0,-100.00,North,355,2.0,19.0,69,0.00,,,-99.99,,2013-05-18 11:42:00,
2013-05-18 07:52:00,55.0,45.0,-100.00,North,4,1.0,19.0,69,0.00,,,-99.99,,2013-05-18 11:52:00,
2013-05-18 08:02:00,55.0,45.0,-100.00,NNE,14,0.0,19.0,71,0.00,,,-99.99,,2013-05-18 12:02:00,
2013-05-18 08:12:00,56.0,46.0,-100.00,North,11,0.0,19.0,72,0.00,,,-99.99,,2013-05-18 12:12:00,
2013-05-18 08:23:00,56.0,45.0,-100.00,NNE,19,2.0,19.0,68,0.00,,,-99.99,,2013-05-18 12:23:00,
2013-05-18 08:33:00,57.0,45.0,-100.00,North,11,3.0,19.0,68,0.00,,,-99.99,,2013-05-18 12:33:00,
2013-05-18 08:42:00,57.0,46.0,-100.00,NNE,19,4.0,19.0,68,0.00,,,-99.99,,2013-05-18 12:42:00,
2013-05-18 08:52:00,57.0,45.0,-100.00,NNE,12,4.0,19.0,68,0.00,,,-99.99,,2013-05-18 12:52:00,
2013-05-18 09:01:00,58.0,46.0,-100.00,NNE,31,4.0,19.0,67,0.00,,,-99.99,,2013-05-18 13:01:00,
2013-05-18 09:12:00,58.0,46.0,-100.00,NNE,19,4.0,19.0,69,0.00,,,-99.99,,2013-05-18 13:12:00,
2013-05-18 09:21:00,58.0,46.0,-100.00,NE,36,3.0,19.0,67,0.00,,,-99.99,,2013-05-18 13:21:00,
2013-05-18 09:33:00,58.0,46.0,-100.00,NE,35,4.0,19.0,66,0.00,,,-99.99,,2013-05-18 13:33:00,
2013-05-18 09:43:00,59.0,46.0,-100.00,ENE,59,3.0,19.0,67,0.00,,,-99.99,,2013-05-18 13:43:00,
2013-05-18 09:52:00,60.0,46.0,-100.00,ENE,57,4.0,19.0,64,0.00,,,-99.99,,2013-05-18 13:52:00,
2013-05-18 10:03:00,60.0,46.0,-100.00,ENE,70,4.0,19.0,64,0.00,,,-99.99,,2013-05-18 14:03:00,
2013-05-18 10:12:00,61.0,46.0,-100.00,ENE,62,3.0,19.0,63,0.00,,,-99.99,,2013-05-18 14:12:00,
2013-05-18 10:22:00,60.0,46.0,-100.00,ENE,76,4.0,19.0,64,0.00,,,-99.99,,2013-05-18 14:22:00,
2013-05-18 10:33:00,62.0,48.0,-100.00,ENE,64,3.0,19.0,64,0.00,,,-99.99,,2013-05-18 14:33:00,
2013-05-18 10:42:00,62.0,46.0,-100.00,ENE,62,2.0,19.0,60,0.00,,,-99.99,,2013-05-18 14:42:00,
2013-05-18 10:54:00,62.0,48.0,-100.00,ENE,67,2.0,19.0,62,0.00,,,-99.99,,2013-05-18 14:54:00,
2013-05-18 11:03:00,63.0,48.0,-100.00,NE,43,2.0,19.0,60,0.00,,,-99.99,,2013-05-18 15:03:00,
2013-05-18 11:13:00,64.0,50.0,-100.00,ENE,72,2.0,19.0,62,0.00,,,-99.99,,2013-05-18 15:13:00,
2013-05-18 11:23:00,64.0,48.0,-100.00,ENE,59,2.0,19.0,59,0.00,,,-99.99,,2013-05-18 15:23:00,
2013-05-18 11:33:00,64.0,50.0,-100.00,East,86,2.0,19.0,63,0.00,,,-99.99,,2013-05-18 15:33:00,
2013-05-18 11:43:00,64.0,48.0,-100.00,ENE,64,2.0,19.0,60,0.00,,,-99.99,,2013-05-18 15:43:00,
2013-05-18 11:53:00,65.0,48.0,-100.00,East,86,3.0,19.0,58,0.00,,,-99.99,,2013-05-18 15:53:00,
2013-05-18 12:03:00,65.0,50.0,-100.00,NE,56,3.0,19.0,58,0.00,,,-99.99,,2013-05-18 16:03:00,
2013-05-18 12:13:00,65.0,50.0,-100.00,NE,52,3.0,3.0,60,0.00,,,-99.99,,2013-05-18 16:13:00,
2013-05-18 12:22:00,65.0,50.0,-100.00,NNE,32,2.0,3.0,59,0.00,,,-99.99,,2013-05-18 16:22:00,
2013-05-18 12:33:00,65.0,50.0,-100.00,ENE,76,2.0,3.0,59,0.00,,,-99.99,,2013-05-18 16:33:00,
2013-05-18 12:42:00,65.0,48.0,-100.00,ENE,64,1.0,3.0,58,0.00,,,-99.99,,2013-05-18 16:42:00,
2013-05-18 12:52:00,66.0,50.0,-100.00,ENE,60,2.0,3.0,59,0.00,,,-99.99,,2013-05-18 16:52:00,
2013-05-18 13:02:00,66.0,48.0,-100.00,East,83,3.0,4.0,56,0.00,,,-99.99,,2013-05-18 17:02:00,
2013-05-18 13:12:00,66.0,52.0,-100.00,East,86,2.0,4.0,60,0.00,,,-99.99,,2013-05-18 17:12:00,
2013-05-18 13:22:00,68.0,52.0,-100.00,NE,56,4.0,4.0,59,0.00,,,-99.99,,2013-05-18 17:22:00,
2013-05-18 13:32:00,68.0,52.0,-100.00,ENE,77,4.0,4.0,58,0.00,,,-99.99,,2013-05-18 17:32:00,
2013-05-18 13:42:00,68.0,50.0,-100.00,ENE,69,4.0,4.0,55,0.00,,,-99.99,,2013-05-18 17:42:00,
2013-05-18 13:52:00,69.0,50.0,-100.00,ENE,60,3.0,4.0,53,0.00,,,-99.99,,2013-05-18 17:52:00,
2013-05-18 14:01:00,70.0,54.0,-100.00,ENE,73,2.0,4.0,56,0.00,,,-99.99,,2013-05-18 18:01:00,
2013-05-18 14:12:00,71.0,52.0,-100.00,East,93,4.0,4.0,51,0.00,,,-99.99,,2013-05-18 18:12:00,
2013-05-18 14:21:00,71.0,52.0,-100.00,ENE,59,2.0,4.0,53,0.00,,,-99.99,,2013-05-18 18:21:00,
2013-05-18 14:32:00,72.0,52.0,-100.00,East,94,2.0,4.0,51,0.00,,,-99.99,,2013-05-18 18:32:00,
2013-05-18 14:42:00,72.0,54.0,-100.00,NE,45,4.0,4.0,54,0.00,,,-99.99,,2013-05-18 18:42:00,
2013-05-18 14:52:00,73.0,55.0,-100.00,East,96,2.0,4.0,55,0.00,,,-99.99,,2013-05-18 18:52:00,
2013-05-18 15:02:00,73.0,54.0,-100.00,NE,45,2.0,4.0,51,0.00,,,-99.99,,2013-05-18 19:02:00,
2013-05-18 15:12:00,74.0,55.0,-100.00,NNE,26,2.0,4.0,54,0.00,,,-99.99,,2013-05-18 19:12:00,
2013-05-18 15:22:00,74.0,55.0,-100.00,NE,55,2.0,4.0,54,0.00,,,-99.99,,2013-05-18 19:22:00,
2013-05-18 15:32:00,76.0,57.0,-100.00,NE,40,4.0,4.0,54,0.00,,,-99.99,,2013-05-18 19:32:00,
2013-05-18 15:42:00,77.0,55.0,-100.00,NE,38,3.0,6.0,49,0.00,,,-99.99,,2013-05-18 19:42:00,
2013-05-18 15:52:00,74.0,55.0,-100.00,NE,40,3.0,6.0,54,0.00,,,-99.99,,2013-05-18 19:52:00,
2013-05-18 16:02:00,75.0,54.0,-100.00,NNW,348,2.0,6.0,51,0.00,,,-99.99,,2013-05-18 20:02:00,
2013-05-18 16:11:00,74.0,55.0,-100.00,NNE,16,4.0,6.0,54,0.00,,,-99.99,,2013-05-18 20:11:00,
2013-05-18 16:22:00,76.0,55.0,-100.00,NE,35,2.0,6.0,51,0.00,,,-99.99,,2013-05-18 20:22:00,
2013-05-18 16:32:00,76.0,57.0,-100.00,North,8,1.0,6.0,53,0.00,,,-99.99,,2013-05-18 20:32:00,
2013-05-18 16:42:00,78.0,57.0,-100.00,North,2,2.0,6.0,50,0.00,,,-99.99,,2013-05-18 20:42:00,
2013-05-18 16:52:00,78.0,57.0,-100.00,NE,52,3.0,6.0,50,0.00,,,-99.99,,2013-05-18 20:52:00,
2013-05-18 17:01:00,78.0,59.0,-100.00,East,94,2.0,6.0,53,0.00,,,-99.99,,2013-05-18 21:01:00,
2013-05-18 17:12:00,79.0,55.0,-100.00,ESE,103,3.0,6.0,46,0.00,,,-99.99,,2013-05-18 21:12:00,
2013-05-18 17:22:00,79.0,55.0,-100.00,SE,142,2.0,6.0,46,0.00,,,-99.99,,2013-05-18 21:22:00,
2013-05-18 17:33:00,78.0,55.0,-100.00,ESE,105,3.0,6.0,47,0.00,,,-99.99,,2013-05-18 21:33:00,
2013-05-18 17:43:00,77.0,54.0,-100.00,SE,139,4.0,6.0,47,0.00,,,-99.99,,2013-05-18 21:43:00,
2013-05-18 17:53:00,77.0,57.0,-100.00,ENE,72,4.0,6.0,53,0.00,,,-99.99,,2013-05-18 21:53:00,
2013-05-18 18:03:00,76.0,57.0,-100.00,NE,53,4.0,6.0,53,0.00,,,-99.99,,2013-05-18 22:03:00,
2013-05-18 18:13:00,76.0,57.0,-100.00,NE,36,5.0,6.0,53,0.00,,,-99.99,,2013-05-18 22:13:00,
2013-05-18 18:23:00,77.0,57.0,-100.00,NNE,32,3.0,6.0,53,0.00,,,-99.99,,2013-05-18 22:23:00,
2013-05-18 18:33:00,77.0,57.0,-100.00,ENE,67,4.0,8.0,53,0.00,,,-99.99,,2013-05-18 22:33:00,
2013-05-18 18:42:00,77.0,57.0,-100.00,ENE,64,4.0,8.0,51,0.00,,,-99.99,,2013-05-18 22:42:00,
2013-05-18 18:52:00,78.0,55.0,-100.00,East,93,4.0,8.0,47,0.00,,,-99.99,,2013-05-18 22:52:00,
2013-05-18 19:02:00,78.0,57.0,-100.00,NE,55,2.0,8.0,51,0.00,,,-99.99,,2013-05-18 23:02:00,
2013-05-18 19:12:00,78.0,57.0,-100.00,ENE,70,4.0,8.0,51,0.00,,,-99.99,,2013-05-18 23:12:00,
2013-05-18 19:22:00,78.0,57.0,-100.00,East,80,4.0,8.0,51,0.00,,,-99.99,,2013-05-18 23:22:00,
2013-05-18 19:32:00,78.0,57.0,-100.00,ENE,72,5.0,8.0,51,0.00,,,-99.99,,2013-05-18 23:32:00,
2013-05-18 19:42:00,77.0,55.0,-100.00,ENE,62,5.0,8.0,51,0.00,,,-99.99,,2013-05-18 23:42:00,
2013-05-18 19:53:00,76.0,57.0,-100.00,ENE,63,4.0,8.0,53,0.00,,,-99.99,,2013-05-18 23:53:00,
2013-05-18 20:01:00,76.0,57.0,-100.00,NE,56,4.0,8.0,53,0.00,,,-99.99,,2013-05-19 00:01:00,
2013-05-18 20:12:00,76.0,55.0,-100.00,NNE,29,4.0,8.0,51,0.00,,,-99.99,,2013-05-19 00:12:00,
2013-05-18 20:22:00,76.0,55.0,-100.00,ENE,59,4.0,8.0,51,0.00,,,-99.99,,2013-05-19 00:22:00,
2013-05-18 20:32:00,76.0,55.0,-100.00,NE,36,4.0,8.0,51,0.00,,,-99.99,,2013-05-19 00:32:00,
2013-05-18 20:41:00,76.0,54.0,-100.00,NE,36,7.0,12.0,47,0.00,,,-99.99,,2013-05-19 00:41:00,
2013-05-18 20:52:00,74.0,52.0,-100.00,NE,53,7.0,12.0,49,0.00,,,-99.99,,2013-05-19 00:52:00,
2013-05-18 21:01:00,73.0,52.0,-100.00,NE,48,9.0,12.0,50,0.00,,,-99.99,,2013-05-19 01:01:00,
2013-05-18 21:11:00,73.0,54.0,-100.00,NE,49,9.0,12.0,51,0.00,,,-99.99,,2013-05-19 01:11:00,
2013-05-18 21:22:00,72.0,52.0,-100.00,ENE,57,9.0,12.0,50,0.00,,,-99.99,,2013-05-19 01:22:00,
2013-05-18 21:32:00,71.0,52.0,-100.00,ENE,67,8.0,12.0,53,0.00,,,-99.99,,2013-05-19 01:32:00,
2013-05-18 21:42:00,69.0,50.0,-100.00,NE,48,6.0,12.0,53,0.00,,,-99.99,,2013-05-19 01:42:00,
2013-05-18 21:52:00,69.0,50.0,-100.00,NE,50,6.0,12.0,51,0.00,,,-99.99,,2013-05-19 01:52:00,
2013-05-18 22:02:00,69.0,50.0,-100.00,NE,50,6.0,12.0,51,0.00,,,-99.99,,2013-05-19 02:02:00,
2013-05-18 22:11:00,67.0,48.0,-100.00,ENE,67,3.0,12.0,53,0.00,,,-99.99,,2013-05-19 02:11:00,
2013-05-18 22:22:00,67.0,48.0,-100.00,NE,56,2.0,12.0,53,0.00,,,-99.99,,2013-05-19 02:22:00,
2013-05-18 22:32:00,67.0,48.0,-100.00,ENE,59,3.0,12.0,54,0.00,,,-99.99,,2013-05-19 02:32:00,
2013-05-18 22:42:00,66.0,48.0,-100.00,ENE,63,2.0,12.0,53,0.00,,,-99.99,,2013-05-19 02:42:00,
2013-05-18 22:52:00,66.0,46.0,-100.00,NE,55,4.0,12.0,51,0.00,,,-99.99,,2013-05-19 02:52:00,
2013-05-18 23:01:00,65.0,48.0,-100.00,NE,52,4.0,12.0,54,0.00,,,-99.99,,2013-05-19 03:01:00,
2013-05-18 23:11:00,65.0,48.0,-100.00,ENE,57,4.0,12.0,54,0.00,,,-99.99,,2013-05-19 03:11:00,
2013-05-18 23:22:00,65.0,46.0,-100.00,NE,42,4.0,12.0,54,0.00,,,-99.99,,2013-05-19 03:22:00,
2013-05-18 23:33:00,64.0,46.0,-100.00,NE,50,4.0,12.0,55,0.00,,,-99.99,,2013-05-19 03:33:00,
2013-05-18 23:42:00,64.0,46.0,-100.00,NE,55,4.0,12.0,56,0.00,,,-99.99,,2013-05-19 03:42:00,
2013-05-18 23:53:00,63.0,48.0,-100.00,NE,43,3.0,12.0,59,0.00,,,-99.99,,2013-05-19 03:53:00,